Regional Weather Roundup
Issued by NWS Jackson, KY

Home | Current Version | Previous Version | Graphics & Text | Print | Product List | Glossary On
Versions: 1 2 3 4 5 6 7 8 9 10 11 12 13 14 15 16 17 18 19 20 21 22 23 24 25 26 27 28 29 30 31 32 33 34 35 36 37 38 39 40 41 42 43 44 45 46 47 48 49 50
000
ASUS43 KJKL 310510
RWRJKL

EAST KENTUCKY HOURLY WEATHER ROUNDUP
NATIONAL WEATHER SERVICE JACKSON KY
100 AM EDT WED AUG 31 2016

NOTE: "FAIR" INDICATES FEW OR NO CLOUDS BELOW 12,000 FEET WITH
NO SIGNIFICANT WEATHER AND/OR OBSTRUCTIONS TO VISIBILITY.

* THESE REPORTS ARE NOT UNDER NWS QUALITY CONTROL AND MAY NOT
  REPORT WEATHER SUCH AS PRECIPITATION AND FOG.

KYZ079-080-083-085-087-088-110-112-115-119-120-310600
...EASTERN KENTUCKY...

CITY           SKY/WX    TMP DP  RH WIND       PRES   REMARKS
JACKSON        CLEAR     73  70  90 CALM      30.08F
LONDON         CLEAR     71  67  87 CALM      30.07F
SOMERSET*      CLEAR     72  72 100 CALM      30.07S
MONTICELLO*    CLEAR    N/A N/A N/A W10       30.08S
WILLIAMSBURG*  CLEAR     70  70 100 CALM      30.07S
MIDDLESBORO*   CLEAR     69  69  99 CALM      30.09S
HARLAN APT*    CLOUDY    70  68  94 CALM      30.10F
PIKE CO APT*     N/A     70  70  98 S5        30.09S
BIG SANDY APT* CLEAR     73  70  92 S3        30.07F
MOREHEAD APT*  CLEAR     70  64  83 CALM      30.08F
$$

KYZ035-036-041-042-044-050-067-078-099-310600
...CENTRAL KENTUCKY...

CITY           SKY/WX    TMP DP  RH WIND       PRES   REMARKS
MT STERLING*   CLEAR     68  66  94 CALM      30.08S
FLEMING/MASON* CLEAR     70  67  89 CALM      30.08S
DANVILLE*      CLEAR     72  70  94 CALM      30.07F
LEXINGTON      CLEAR     75  66  73 N3        30.07S
FRANKFORT      CLEAR     73  69  87 CALM      30.05S
LOUISVILLE     MOCLDY    81  69  67 CALM      30.04S
LEBANON*         N/A     75  70  83 E5        30.06S
GLASGOW*       CLEAR     73  73 100 CALM      30.04S
BOWLING GREEN  CLEAR     77  73  87 CALM      30.04R
$$

KYZ091>093-OHZ055-061-077-WVZ005-015-034-035-042-310600
...SOUTHERN OHIO/WEST VIRGINIA...

CITY           SKY/WX    TMP DP  RH WIND       PRES   REMARKS
COVINGTON      MOCLDY    73  68  84 N10       30.07F
COLUMBUS       CLOUDY    71  64  78 CALM      30.04F
DAYTON         CLOUDY    71  68  90 CALM      30.08F
WILMINGTON     PTCLDY    71  66  84 N8        30.07S
HUNTINGTON     CLEAR     70  66  87 CALM      30.05S
CHARLESTON     PTCLDY    67  65  93 CALM      30.05F
PINEVILLE*     CLOUDY    68  65  90 MISG      30.16S FOG
BECKLEY        CLEAR     67  65  93 CALM      30.14F
BLUEFIELD      CLOUDY    71  63  75 S5        30.18S
LOGAN CO APT*    N/A     70  70 100 CALM      30.08F FOG
$$

VAZ002-007-008-TNZ017-027-036-066-071-310600
...SOUTHWEST VIRGINIA/EAST TENNESSEE...

CITY           SKY/WX    TMP DP  RH WIND       PRES   REMARKS
WISE*          CLEAR     68  64  88 CALM      30.17S
JONESVILLE*      N/A     68  66  94 CALM      30.11S
ABINGDON*      CLEAR     71  67  89 CALM      30.13R
BRISTOL        PTCLDY    69  67  93 N3        30.10R
MORRISTOWN*    CLEAR     77  68  73 NE3       30.06S
SEVIERVILLE*   CLEAR     72  66  83 CALM      30.04S
KNOXVILLE      CLEAR     76  68  76 SE3       30.03S
OAK RIDGE      CLEAR     75  69  81 CALM      30.06S
CROSSVILLE     CLEAR     69  68  96 CALM      30.11S
NASHVILLE      CLEAR     80  73  79 CALM      30.03S
$$

...KEY TO REMARKS...
VSB - VISIBILITY IN MILES
WCI - WIND CHILL INDEX
HX  - HEAT INDEX

$$



USA.gov is the U.S. government's official web portal to all federal, state and local government web resources and services.